joker123 tembak ikan
s128 sabung ayam

Jackpot

Texas Poker Multi Jackpot System

Kini Telah hadir Jackpot SUPER ROYAL FLUSH

Kini Telah hadir Jackpot 2000 (khusus table VIP keatas).

Ikutilah global jackpot yang tersedia di system kami, dengan system jackpot terbaru dan pertama di indonesia, anda dapat membeli jackpot dengan harga 100 rupiah saja dan menangkan hadiahnya hingga puluhan juta rupiah.

Jackpot bukanlah suatu keharusan untuk dibeli, namun kami memberikan suatu fitur tambahan untuk member tercinta dari www.stationpokers.org.

Terdapat tiga pilihan harga jackpot yang bisa anda beli yaitu :100,500,1000 dan 2000(khusus table VIP Keatas) rupiah.

Hadiah dari Multi jackpot system www.stationpokers.org

  1. full house x 10 harga jackpot yang anda beli.
      (contoh:anda membeli 1000 maka:1000 X10 = 10.000)
  2. four of kind x 250 harga jackpot yang anda beli
      (contoh:anda membeli 1000 maka:1000 X250 = 250.000)
  3. Straight flush x 1200
      (contoh:anda membeli 1000 maka:1000 X1200 = 1.200.000)
  4. Royal flush x 10000 harga jackpot yang anda beli
      (contoh:anda membeli 1000 maka:1000 X10000 = 10.000.000)
  5. SUPER ROYAL FLUSH x 30000 harga jackpot yang anda beli
      (contoh:anda membeli 1000 maka:1000 X30000 = 30.000.000)

Kondisi kartu

  1. full house adalah kondisi kartu dimana kartu anda dan kartu tengah dengan total 7 kartu bisa mendapatkan nilai 5 kartu dengan kombinasi 1 tris(three of kind) dan 1 pair, contoh 3 kartu 10 dan 2 kartu 5
  2. Four of kind adalah kondisi kartu dimana kartu anda dan kartu tengah dengan total 7 kartu bisa mendapatkan nilai 5 kartu dengan kombinasi 4 kartu yang sama jumlah dan 1 kartu apapun juga contoh anda mendapatkan 4 buah kartu angka 3 dan 1 kartu apapun.
  3. Staright flush adalah kondisi kartu dimana kartu anda dan kartu tengah dengan total 7 kartu bisa mendapatkan nilai 5 kartu dengan kombinasi seri / staright dengan kembang yang sama contoh : urutan kartu dari angka 5, 6, 7, 8 , 9 10 dengan kembang yg sama misalnya as hati
  4. Royal flush adalah kondisi kartu dimana kartu anda dan kartu tengah dengan total 7 kartu bisa mendapatkan nilai 5 kartu dengan kombinasi seri / staright dengan kembang yang sama tetapi kartu tersebut haruslah dimulai dari 10. contoh 10, Queen, Jack, King dan aces dengan kembang yang sama
  5. Super Royal flush adalah kondisi kartu dimana Kedua kartu anda digabung dengan 3 kartu pertama meja haruslah royal flush. contoh kartu anda 10,Queen kembang sama dan 3 kartu pertama meja adalah Jack, King dan aces dengan kembang yang sama

Demikian adalah penjelasan dari Multi Jackpot www.stationpokers.org terima kasih dan selamat bermain salam hoki dari kami

Texas Poker Jackpot Winner

TOP SUPER ROYAL FLUSH
No.TanggalNamaPriceWin
117/07 14:30RAIISS_AASuper Royal flush6,000,000
217/07 14:23LB995745Super Royal flush1,500,000
317/07 11:25YUS156Super Royal flush6,000,000
417/07 10:15INDRA146Super Royal flush1,500,000
517/07 07:55MAMSKI12Super Royal flush30,000,000
TOP ROYAL FLUSH
No.TanggalNamaPriceWin
117/07 16:18MBEBOCONRoyal flush20,000,000
217/07 16:01BORUTO_22Royal flush5,000,000
317/07 15:58MARDIAH99Royal flush10,000,000
417/07 15:46DERPANSERRRoyal flush5,000,000
517/07 15:23DNRS18Royal flush5,000,000
TOP STRAIGHT FLUSH
No.TanggalNamaPriceWin
117/07 16:17P4K_JOStraight Flush120,000
217/07 16:16GOBENG_GO7Straight Flush600,000
317/07 16:16BELVA96Straight Flush2,400,000
417/07 16:08MUS3RMUS3RStraight Flush2,400,000
517/07 16:08TETAPJANGStraight Flush120,000
LATEST JACKPOT
No.TanggalNamaPriceWin
117/07 16:19RADIO13Full House10,000
217/07 16:19RED45Full House2,000
317/07 16:19EABA9A0EFull House1,000
417/07 16:19TEMPIK01Full House2,000
517/07 16:18KARUNGG8Full House2,000
617/07 16:18DASYAT123Full House2,000
717/07 16:18THEZIANGFull House10,000
817/07 16:18JASMINE03Full House5,000
917/07 16:18SINI_501Full House1,000
1017/07 16:18DPTTOPUNGFull House2,000
1117/07 16:18DOLENANFour Of A Kind50,000
1217/07 16:18E05C7D8EFull House5,000
1317/07 16:18A20NGJI99732Full House500
1417/07 16:18CB77RAHMZHUFour Of A Kind25,000
1517/07 16:18BISPAX7777Four Of A Kind125,000
1617/07 16:18KUMAENGKEFull House20,000
1717/07 16:18R6W86AZT4CFull House5,000
1817/07 16:18MBEBOCONRoyal flush20,000,000
1917/07 16:18FA66F452Full House2,000
2017/07 16:18TUOLON6Full House1,000
2117/07 16:18GEPEES88Full House5,000
2217/07 16:18DEDY1993Full House1,000
2317/07 16:18GABAH51Full House2,000
2417/07 16:18JP_8Full House10,000
2517/07 16:18AMPLOP57Full House1,000
2617/07 16:18C84EEK555243Full House5,000
2717/07 16:18SWANTE17Four Of A Kind250,000
2817/07 16:18KG12DA102FFull House2,000
2917/07 16:18P6H2PQZZ8FFull House2,000
3017/07 16:18MANTOCSFull House10,000
3117/07 16:18RANGSODFull House1,000
3217/07 16:18COOOOBFull House5,000
3317/07 16:18JOKER811Full House5,000
3417/07 16:18CLOWN10Full House10,000
3517/07 16:18NET09Full House5,000
3617/07 16:18RID23455Full House1,000
3717/07 16:18FB3A6B8AFull House5,000
3817/07 16:18NAGAKIU9Full House20,000
3917/07 16:18FC0902A7Full House5,000
4017/07 16:18BEILYBAGUSFull House2,000
4117/07 16:18M123POLFull House10,000
4217/07 16:18CAVIN990Full House1,000
4317/07 16:18LINE_99Full House1,000
4417/07 16:18NISPEK007Full House2,000
4517/07 16:18GAGAR77Full House2,000
4617/07 16:18BKO008Full House2,000
4717/07 16:18IONAXR0E11Full House2,000
4817/07 16:18JON189Four Of A Kind25,000
4917/07 16:18FWUDAKE5TRFull House2,000
5017/07 16:18ANDHYS69Full House1,000

Domino Multi Jackpot System

Ikutilah global jackpot yang tersedia di system kami, dengan system jackpot terbaru dan pertama di indonesia, anda dapat membeli jackpot dengan harga 100 rupiah saja dan menangkan hadiahnya hingga puluhan juta rupiah.

Jackpot bukanlah suatu keharusan untuk dibeli, namun kami memberikan suatu fitur tambahan untuk member tercinta dari www.stationpokers.org.

Terdapat tiga pilihan harga jackpot yang bisa anda beli yaitu :100,500 dan 1000 rupiah.

Hadiah dari Multi jackpot system www.stationpokers.org

  1. Murni Kecil x 50 harga jackpot yang anda beli.
      (contoh:anda membeli 1000 maka:1000 X 50 = 50.000)
  2. Murni Besar x 50 harga jackpot yang anda beli
      (contoh:anda membeli 1000 maka:1000 X 50 = 50.000)
  3. BALAK x 100 harga jackpot yang anda beli
      (contoh:anda membeli 1000 maka:1000 X 100 = 100.000)
  4. ENAM DEWA x 6666 harga jackpot yang anda beli
      (contoh:anda membeli 1000 maka:1000 X 6666 = 6.666.000)

Demikian adalah penjelasan dari Multi Jackpot www.stationpokers.org terima kasih dan selamat bermain salam hoki dari kami

Domino Jackpot Winner

TOP ENAM DEWA
No.TanggalNamaPriceWin
117/07 16:17MRBLUE12murni enam6,666,000
217/07 15:20RTDANTOmurni enam3,333,000
317/07 14:43MAMPUS321murni enam3,333,000
417/07 13:04HAER333murni enam6,666,000
517/07 12:51BLOK9ASmurni enam3,333,000
TOP BALAK
No.TanggalNamaPriceWin
117/07 16:18VHIANDT83balak10,000
217/07 16:17JEKLIN77balak100,000
317/07 16:17PASID_99balak50,000
417/07 16:15CEPLES46balak100,000
517/07 16:11IBRO72balak100,000
LATEST JACKPOT
No.TanggalNamaPriceWin
117/07 16:18SIBLECK99murni besar50,000
217/07 16:18PUNGUT302murni kecil50,000
317/07 16:18GHAITSA6murni besar50,000
417/07 16:18VHIANDT83balak10,000
517/07 16:18MASTER0087murni kecil50,000
617/07 16:17JEKLIN77balak100,000
717/07 16:17ANDISALIMmurni besar25,000
817/07 16:17PASID_99balak50,000
917/07 16:17KEBO213murni besar50,000
1017/07 16:17MRBLUE12murni enam6,666,000
1117/07 16:17KAL1985murni besar50,000
1217/07 16:17ALTITO889murni kecil50,000
1317/07 16:17NUNNAmurni kecil5,000
1417/07 16:16TEBOUCINK2murni kecil50,000
1517/07 16:16SOFYAN05murni kecil50,000
1617/07 16:16HENRI222murni besar50,000
1717/07 16:16FRANSOKmurni besar25,000
1817/07 16:15DEWY04murni besar50,000
1917/07 16:15RATTIH99murni besar25,000
2017/07 16:15CEPLES46balak100,000
2117/07 16:15IBRO72murni besar50,000
2217/07 16:14CIKENCEH26murni besar25,000
2317/07 16:14BEL1NKmurni kecil50,000
2417/07 16:14ENCISLOmurni kecil50,000
2517/07 16:14FIT206murni besar5,000
2617/07 16:14BADEN6666murni besar50,000
2717/07 16:13NOPEN79murni besar25,000
2817/07 16:13FERY0208murni besar50,000
2917/07 16:13HOKKI_XX1lucky9910,000
3017/07 16:13RENALD99murni kecil50,000
3117/07 16:12SARAOCTARYmurni kecil25,000
3217/07 16:12LINTAHMEJAmurni besar50,000
3317/07 16:12IJUL_66lucky9925,000
3417/07 16:12BALDOMD1murni besar25,000
3517/07 16:12QZXZ8JG0M8murni besar50,000
3617/07 16:11IBRO72balak100,000
3717/07 16:11ABCDEFZmurni kecil5,000
3817/07 16:11BUL6OSOmurni kecil25,000
3917/07 16:11LOP700murni besar50,000
4017/07 16:11TOREETOOmurni besar5,000
4117/07 16:10GOIP09murni besar25,000
4217/07 16:10DU1T54Y4balak10,000
4317/07 16:10B454H501balak50,000
4417/07 16:10MURRY88murni besar50,000
4517/07 16:09YTGNIC092Qbalak100,000
4617/07 16:09JAGOA46murni besar50,000
4717/07 16:09BULANAJEmurni kecil5,000
4817/07 16:09BANKER91murni besar25,000
4917/07 16:09BEL1NKmurni kecil50,000
5017/07 16:08KABUD6666murni kecil50,000

Ceme Multi Jackpot System

Jackpot dilihat dari gabungan kartu pemain dengan kartu bandar. Bandar harus membeli jackpot sebanyak jumlah player yang sedang duduk. Sebagai contoh bila terdapat 3 pemain duduk bermain, dan bandar memutuskan untuk membeli jackpot Rp 1.000, maka pada periode tersebut bandar akan membeli jackpot sebanyak 3xRp1.000 = Rp3.000.

Jackpot bukanlah suatu keharusan untuk dibeli, namun kami memberikan suatu fitur tambahan untuk member tercinta dari www.stationpokers.org.

Terdapat tiga pilihan harga jackpot yang bisa anda beli yaitu :100,500 dan 1000 rupiah.

Hadiah dari Multi jackpot system www.stationpokers.org

  1. Murni Kecil x 50 harga jackpot yang anda beli.
      (contoh:anda membeli 1000 maka:1000 X 50 = 50.000)
  2. Murni Besar x 50 harga jackpot yang anda beli
      (contoh:anda membeli 1000 maka:1000 X 50 = 50.000)
  3. BALAK x 200 harga jackpot yang anda beli
      (contoh:anda membeli 1000 maka:1000 X 200 = 200.000)
  4. ENAM DEWA x 6666 harga jackpot yang anda beli
      (contoh:anda membeli 1000 maka:1000 X 6666 = 6.666.000)

Demikian adalah penjelasan dari Multi Jackpot www.stationpokers.org terima kasih dan selamat bermain salam hoki dari kami

Ceme Jackpot Winner

TOP ENAM DEWA
No.TanggalNamaPriceWin
117/07 16:17NADAYmurni enam6,666,000
217/07 16:06VAN_DESHmurni enam6,666,000
317/07 15:27AYINKKKmurni enam6,666,000
417/07 15:27JJJAJAmurni enam6,666,000
517/07 15:25YOOOII8IIImurni enam666,600
TOP BALAK
No.TanggalNamaPriceWin
117/07 16:18BISONALIbalak200,000
217/07 16:18KOKOBUNBUHbalak20,000
317/07 16:18BAAKQ12balak200,000
417/07 16:18MUS3TOP4balak200,000
517/07 16:18BOBIKANCILbalak200,000
LATEST JACKPOT
No.TanggalNamaPriceWin
117/07 16:18JUMIM21murni kecil5,000
217/07 16:18TOKEK2121murni kecil5,000
317/07 16:18BISONALIbalak200,000
417/07 16:18TONPYO356murni besar5,000
517/07 16:18ORALITE_SFmurni kecil50,000
617/07 16:18CHUNGBAAmurni kecil50,000
717/07 16:18KOKOBUNBUHbalak20,000
817/07 16:18BAAKQ12balak200,000
917/07 16:18MUS3TOP4balak200,000
1017/07 16:18VIX2013murni kecil50,000
1117/07 16:18DINO1509murni kecil5,000
1217/07 16:18AHOY27murni kecil50,000
1317/07 16:18BOBIKANCILbalak200,000
1417/07 16:18ION5QTQJ9Qmurni kecil25,000
1517/07 16:18HARI9murni kecil50,000
1617/07 16:18DWBTAANG40murni besar50,000
1717/07 16:18J9F8USH007murni besar5,000
1817/07 16:18NYWQBMEC0Nmurni besar50,000
1917/07 16:18DEDENWIRmurni kecil50,000
2017/07 16:18NGUKOSSSmurni kecil5,000
2117/07 16:18ANDEVA_murni kecil50,000
2217/07 16:18SAKMAT25murni kecil50,000
2317/07 16:18IN0H27murni kecil50,000
2417/07 16:18BATOSAI_88murni kecil50,000
2517/07 16:18CALIZT44murni kecil25,000
2617/07 16:18PEPEY378murni kecil25,000
2717/07 16:18KI24RImurni kecil50,000
2817/07 16:18KI24RImurni kecil50,000
2917/07 16:18A590F9AEmurni kecil50,000
3017/07 16:18PRISTIAmurni besar50,000
3117/07 16:18MJTAAW85NZmurni besar50,000
3217/07 16:17YUANGHAKIMmurni kecil50,000
3317/07 16:17QUEEN1928murni kecil25,000
3417/07 16:17QURRO_NINEmurni kecil5,000
3517/07 16:17JINKAMRANmurni kecil50,000
3617/07 16:17AURAH007murni kecil50,000
3717/07 16:17TIARA16101murni kecil50,000
3817/07 16:17NADAYmurni enam6,666,000
3917/07 16:17SYAH8888murni besar25,000
4017/07 16:17FAY69murni besar50,000
4117/07 16:17UDANAASmurni kecil50,000
4217/07 16:17HENDRO76murni besar50,000
4317/07 16:17LELEL69murni besar50,000
4417/07 16:17HENDRO76murni besar50,000
4517/07 16:17GALILUUmurni besar50,000
4617/07 16:17JARKA88murni besar5,000
4717/07 16:17DEDENWIRmurni kecil25,000
4817/07 16:16SUNJAYA999murni besar25,000
4917/07 16:16RAVE1993murni kecil50,000
5017/07 16:16K1N966murni kecil50,000